User: anonymous   Login
Location: Unspecified
(0.0000°N, 0.0000°E)
Time: 12:58:45
(UTC+00:00)
Language:

MERIDIAN 6 - Orbit

View from above orbital plane
View from above orbital plane
View from above satellite
View from above satellite

Ground track
Ground track

The orbit data is extracted from the following two-line orbital elements,

1 38995U 12063A   17350.95319181 -.00000149 +00000-0 +10000-3 0  9998
2 38995 065.4433 315.3855 6854431 279.7049 014.7438 02.00621109037299
Epoch (UTC): 16 December 2017 22:52:35
Eccentricity: 0.6854431
inclination: 65.4433°
perigee height: 1975 km
apogee height: 38379 km
right ascension of ascending node: 315.3855°
argument of perigee: 279.7049°
revolutions per day: 2.00621109
mean anomaly at epoch: 14.7438°
orbit number at epoch: 3729

The dashed part of the orbit path shows where the satellite is in the earth's shadow,  

DLR